Flag for U.S.A. Weather past 2 weeks in Citrus Heights, California, U.S.A.

Now
52 °F

Passing clouds.


Feels Like: 51 °F
Forecast: 53 / 78 °F
Wind: 3 mph from Southwest

Location: Mather Field

Current Time: May 23, 2015 at 6:29:12 AM

Latest Report: May 23, 2015 at 5:45 AM


Visibility: 10 mi

Pressure: 30.04 "Hg

Humidity: 94%

Dew point: 50 °F

Location of Citrus HeightsLocation

Historic Weather in Citrus Heights — Graph

°F

Citrus Heights temperature yesterday

Maximum temperature yesterday: 73 °F (at 2:45 PM)
Minimum temperature yesterday: 54 °F (at 2:45 AM)
Average temperature yesterday: 62 °F

Past Weeks' High & Low Weather Summary

 TemperatureHumidityPressure
High79 °F (May 10, 3:50 PM)100% (May 9, 3:45 AM)30.09 "Hg (May 9, 3:45 AM)
Low45 °F (May 8, 4:45 AM)25% (May 12, 4:50 PM)29.72 "Hg (May 14, 3:55 PM)
Average61 °F64%29.93 "Hg
* Reported May 8 4:45 AM — May 23 4:45 AM, Citrus Heights, Weather by CustomWeather, © 2015

Note: Actual official high and low records may vary slightly from our data, if they occured in-between our weather recording intervals... More about our weather records

Advertising

Citrus Heights weather history for previous 24 hours

 ConditionsComfort  
Time TempWeatherWind HumidityBarometerVisibility
4:45 AM
Sat, May 23
55 °FPassing clouds.7 mph82%30.03 "Hg10 mi
3:45 AM55 °FPassing clouds.8 mph82%30.03 "Hg10 mi
2:45 AM55 °FPassing clouds.10 mph82%30.03 "Hg10 mi
10:45 PM
Fri, May 22
57 °FPassing clouds.8 mph77%30.03 "Hg10 mi
9:45 PM59 °FPassing clouds.12 mph72%30.00 "Hg10 mi
8:48 PM63 °FScattered clouds.14 mph64%29.98 "Hg10 mi
7:45 PM64 °FScattered clouds.15 mph64%29.96 "Hg10 mi
6:53 PM68 °FScattered clouds.15 mph56%29.95 "Hg10 mi
5:48 PM73 °FPassing clouds.9 mph44%29.94 "Hg10 mi
3:45 PM73 °FScattered clouds.12 mph57%29.94 "Hg10 mi
2:45 PM73 °FScattered clouds.10 mph44%29.95 "Hg10 mi
1:52 PM72 °FScattered clouds.8 mph47%29.96 "Hg10 mi
12:47 PM68 °FScattered clouds.9 mph53%29.97 "Hg10 mi
11:50 AM66 °FPartly sunny.8 mph60%29.99 "Hg10 mi
10:50 AM63 °FPartly sunny.7 mph64%30.00 "Hg10 mi
9:47 AM59 °FPartly sunny.6 mph72%30.00 "Hg10 mi
8:45 AM57 °FOvercast.6 mph77%30.00 "Hg10 mi
7:45 AM54 °FOvercast.8 mph88%29.99 "Hg10 mi
6:50 AM55 °FOvercast.6 mph82%29.98 "Hg10 mi
Weather by CustomWeather, © 2015

See weather overviewHow to use our weather pages